Weather History for Florala, AL

Change the Weather History Date:

Friday, October 5, 2012

  Actual Average (KCEW) Record (KCEW)
Temperature  
Mean Temperature 72 °F -  
Max Temperature 82 °F 84 °F 93 °F (1951)
Min Temperature 62 °F 58 °F 44 °F (1979)
Cooling Degree Days 7    
Growing Degree Days 22 (Base 50)    
Moisture  
Dew Point 67 °F    
Average Humidity 87    
Maximum Humidity 100    
Minimum Humidity 67    
Precipitation  
Precipitation 0.00 in - - ()
Sea Level Pressure  
Sea Level Pressure 30.12 in    
Wind  
Wind Speed 1 mph (East)    
Max Wind Speed 7 mph    
Max Gust Speed -    
Visibility 7 miles    
Events Fog    
Averages and records for this station are not official NWS values.
T = Trace of Precipitation, MM = Missing Value Source: NWS Daily Summary

Daily Weather History Graph

Daily Weather History Graph

Search for Another Location

Airport:

Trip Planner

Search our weather history database for the weather conditions in past years. The results will help you decide how hot, cold, wet, or windy it might be!

Date:

Astronomy

Oct. 05, 2012 Rise Set
Actual Time 6:41 AM CDT 6:24 PM CDT
Civil Twilight 6:17 AM CDT 6:48 PM CDT
Nautical Twilight 5:49 AM CDT 7:16 PM CDT
Astronomical Twilight 5:21 AM CDT 7:44 PM CDT
Moon 10:05 PM CDT (10/5) 11:30 AM CDT (10/5)
Length of Visible Light 12h 31m
Length of Day
11h 43m
Waning Gibbous, 74% of the Moon is Illuminated
Oct 5
Waning Gibbous
Oct 8
Last Quarter
Oct 15
New
Oct 21
First Quarter
Oct 29
Full

Hourly Weather History & Observations

Time (CDT) Temp. Heat Index Dew Point Humidity Pressure Visibility Wind Dir Wind Speed Gust Speed Precip Events Conditions
12:58 AM 64.9 °F - 62.1 °F 90% 30.17 in 10.0 mi Calm Calm - N/A   Clear
1:58 AM 64.0 °F - 62.1 °F 93% 30.16 in 10.0 mi Calm Calm - N/A   Clear
2:31 AM 62.6 °F - 60.8 °F 94% 30.16 in 10.0 mi Calm Calm - N/A   Partly Cloudy
2:40 AM 64.4 °F - 62.6 °F 94% 30.15 in 10.0 mi Calm Calm - N/A   Mostly Cloudy
2:58 AM 64.0 °F - 62.1 °F 93% 30.14 in 10.0 mi Calm Calm - N/A   Overcast
3:58 AM 64.9 °F - 63.0 °F 93% 30.14 in 0.2 mi Calm Calm - N/A Fog Fog
4:58 AM 64.0 °F - 63.0 °F 96% 30.14 in 0.5 mi Calm Calm - N/A Fog Fog
5:58 AM 64.0 °F - 63.0 °F 96% 30.15 in 0.5 mi Calm Calm - N/A Fog Fog
6:08 AM 64.4 °F - 62.6 °F 94% 30.16 in 1.2 mi Calm Calm - N/A   Overcast
6:37 AM 62.6 °F - 62.6 °F 100% 30.16 in 3.0 mi Calm Calm - N/A   Mostly Cloudy
6:58 AM 63.0 °F - 62.1 °F 97% 30.15 in 3.0 mi Calm Calm - N/A   Partly Cloudy
7:38 AM 64.4 °F - 64.4 °F 100% 30.16 in 3.0 mi Calm Calm - N/A   Mostly Cloudy
7:45 AM 64.4 °F - 64.4 °F 100% 30.16 in 3.0 mi Calm Calm - N/A   Scattered Clouds
7:58 AM 64.9 °F - 64.0 °F 97% 30.15 in 3.0 mi Calm Calm - N/A   Partly Cloudy
8:09 AM 64.4 °F - 64.4 °F 100% 30.17 in 3.0 mi Calm Calm - N/A   Scattered Clouds
8:26 AM 66.2 °F - 64.4 °F 94% 30.17 in 4.0 mi North 3.5 mph - N/A   Mostly Cloudy
8:58 AM 68.0 °F - 64.9 °F 90% 30.17 in 4.0 mi Calm Calm - N/A   Overcast
9:14 AM 69.8 °F - 66.2 °F 88% 30.17 in 7.0 mi ENE 4.6 mph - N/A   Mostly Cloudy
9:58 AM 72.0 °F - 68.0 °F 87% 30.15 in 10.0 mi ENE 6.9 mph - N/A   Partly Cloudy
10:28 AM 73.4 °F - 69.8 °F 88% 30.16 in 10.0 mi East 4.6 mph - N/A   Mostly Cloudy
10:32 AM 75.2 °F - 69.8 °F 83% 30.16 in 10.0 mi East 6.9 mph - N/A   Mostly Cloudy
10:41 AM 73.4 °F - 69.8 °F 88% 30.16 in 10.0 mi East 4.6 mph - N/A   Scattered Clouds
10:58 AM 75.0 °F - 69.1 °F 82% 30.15 in 10.0 mi ENE 3.5 mph - N/A   Partly Cloudy
11:58 AM 77.0 °F - 71.1 °F 82% 30.14 in 10.0 mi ENE 4.6 mph - N/A   Mostly Cloudy
12:29 PM 78.8 °F - 71.6 °F 78% 30.13 in 10.0 mi ENE 6.9 mph - N/A   Mostly Cloudy
12:44 PM 78.8 °F - 71.6 °F 78% 30.13 in 10.0 mi East 3.5 mph - N/A   Mostly Cloudy
12:58 PM 80.1 °F 83.2 °F 70.0 °F 71% 30.11 in 10.0 mi ESE 3.5 mph - N/A   Mostly Cloudy
1:50 PM 80.6 °F 83.9 °F 69.8 °F 70% 30.09 in 10.0 mi Calm Calm - N/A   Overcast
1:58 PM 80.1 °F 83.2 °F 70.0 °F 71% 30.08 in 10.0 mi SE 4.6 mph - N/A   Overcast
2:58 PM 82.0 °F 85.9 °F 70.0 °F 67% 30.05 in 10.0 mi Variable 3.5 mph - N/A   Mostly Cloudy
3:58 PM 82.0 °F 85.9 °F 70.0 °F 67% 30.02 in 10.0 mi Calm Calm - N/A   Mostly Cloudy
4:19 PM 80.6 °F 83.9 °F 69.8 °F 70% 30.03 in 10.0 mi East 3.5 mph - N/A   Mostly Cloudy
4:58 PM 80.1 °F 83.2 °F 70.0 °F 71% 30.02 in 10.0 mi ESE 3.5 mph - N/A   Clear
5:58 PM 80.1 °F 83.2 °F 70.0 °F 71% 30.02 in 10.0 mi SSE 3.5 mph - N/A   Overcast
6:58 PM 75.9 °F - 71.1 °F 85% 30.02 in 10.0 mi Calm Calm - N/A   Clear
7:58 PM 75.0 °F - 71.1 °F 87% 30.04 in 10.0 mi Calm Calm - N/A   Clear
8:58 PM 73.9 °F - 71.1 °F 91% 30.04 in 10.0 mi Calm Calm - N/A   Overcast
9:58 PM 73.0 °F - 70.0 °F 90% 30.05 in 10.0 mi Calm Calm - N/A   Scattered Clouds
10:58 PM 72.0 °F - 69.1 °F 91% 30.05 in 7.0 mi Calm Calm - N/A   Clear
11:58 PM 71.1 °F - 69.1 °F 93% 30.04 in 5.0 mi Calm Calm - N/A   Clear